When you browse on this site, cookies collect data to enhance your experience and personalize the content and advertising you see.
Visit our Privacy Policy to learn more. By continuing to use the site, you agree to this use of cookies and data.
  • In Spain
  • List of Countries
  • For 7 days
  • Water Temperature
  • Weather Map
  • Weather Widgets
  • user-avatar
    Login

    Hourly Weather Bristol

    Today, 15 September, Sunday

    Time Temperature Precipitation Wind Pressure Humidity
    00:00 +13°C° 0 mm 2 mps 769 mmHg 83%
    01:00 +13°C° 0 mm 2 mps 769 mmHg 86%
    02:00 +12°C° 0 mm 3 mps 768 mmHg 90%
    03:00 +12°C° 0 mm 3 mps 768 mmHg 93%
    04:00 +13°C° 0 mm 2 mps 768 mmHg 92%
    05:00 +13°C° 0 mm 2 mps 768 mmHg 92%
    06:00 +13°C° 0 mm 2 mps 768 mmHg 90%
    07:00 +15°C° 0 mm 2 mps 768 mmHg 85%
    08:00 +16°C° 0 mm 2 mps 767 mmHg 80%
    09:00 +18°C° 0 mm 3 mps 767 mmHg 74%
    10:00 +19°C° 0 mm 3 mps 767 mmHg 73%
    11:00 +20°C° 0 mm 3 mps 767 mmHg 72%
    12:00 +21°C° 0 mm 3 mps 767 mmHg 70%
    13:00 +21°C° 0 mm 3 mps 767 mmHg 71%
    14:00 +21°C° 0 mm 4 mps 766 mmHg 73%
    15:00 +22°C° 0 mm 4 mps 766 mmHg 74%
    16:00 +20°C° 0 mm 3 mps 766 mmHg 78%
    17:00 +19°C° 0 mm 3 mps 766 mmHg 83%
    18:00 +18°C° 0 mm 2 mps 765 mmHg 88%
    19:00 +17°C° 0 mm 2 mps 766 mmHg 90%
    20:00 +17°C° 0 mm 2 mps 766 mmHg 92%
    21:00 +16°C° 0 mm 2 mps 766 mmHg 94%
    22:00 +16°C° 0 mm 2 mps 766 mmHg 95%
    23:00 +16°C° 0 mm 3 mps 766 mmHg 95%

    Tomorrow, 16 September, Monday

    Time Temperature Precipitation Wind Pressure Humidity
    00:00 +14°C° 0 mm 3 mps 765 mmHg 96%
    01:00 +16°C° 0 mm 3 mps 765 mmHg 95%
    02:00 +16°C° 0 mm 3 mps 765 mmHg 94%
    03:00 +16°C° 0 mm 3 mps 764 mmHg 94%
    04:00 +16°C° 0 mm 3 mps 764 mmHg 93%
    05:00 +16°C° 0 mm 3 mps 764 mmHg 92%
    06:00 +17°C° 0 mm 3 mps 764 mmHg 92%
    07:00 +17°C° 0 mm 3 mps 764 mmHg 90%
    08:00 +18°C° 0 mm 3 mps 764 mmHg 88%
    09:00 +18°C° 0 mm 3 mps 764 mmHg 86%
    10:00 +19°C° 0 mm 3 mps 765 mmHg 84%
    11:00 +19°C° 0 mm 3 mps 765 mmHg 83%
    12:00 +20°C° 0 mm 3 mps 765 mmHg 81%
    13:00 +19°C° 0.1 mm 3 mps 765 mmHg 81%
    14:00 +19°C° 0.1 mm 4 mps 765 mmHg 81%
    15:00 +18°C° 0.1 mm 4 mps 765 mmHg 81%
    16:00 +18°C° 0 mm 4 mps 765 mmHg 80%
    17:00 +17°C° 0 mm 4 mps 765 mmHg 79%
    18:00 +15°C° 0 mm 4 mps 765 mmHg 79%
    19:00 +14°C° 0 mm 4 mps 765 mmHg 78%
    20:00 +13°C° 0 mm 5 mps 766 mmHg 78%
    21:00 +10°C° 0 mm 5 mps 767 mmHg 78%
    22:00 +10°C° 0 mm 4 mps 767 mmHg 81%
    23:00 +10°C° 0 mm 4 mps 767 mmHg 85%

    Day after tomorrow, 17 September, Tuesday

    Time Temperature Precipitation Wind Pressure Humidity
    00:00 +9°C° 0 mm 3 mps 767 mmHg 88%
    01:00 +9°C° 0 mm 3 mps 767 mmHg 89%
    02:00 +8°C° 0 mm 3 mps 767 mmHg 91%
    03:00 +8°C° 0 mm 3 mps 767 mmHg 92%
    04:00 +8°C° 0 mm 3 mps 767 mmHg 93%
    05:00 +8°C° 0 mm 3 mps 767 mmHg 93%
    06:00 +8°C° 0 mm 3 mps 768 mmHg 93%
    07:00 +9°C° 0 mm 3 mps 768 mmHg 87%
    08:00 +11°C° 0 mm 3 mps 768 mmHg 81%
    09:00 +13°C° 0 mm 4 mps 768 mmHg 74%
    10:00 +14°C° 0 mm 4 mps 768 mmHg 69%
    11:00 +16°C° 0 mm 3 mps 768 mmHg 64%
    12:00 +17°C° 0 mm 3 mps 768 mmHg 58%
    13:00 +18°C° 0 mm 3 mps 768 mmHg 57%
    14:00 +18°C° 0 mm 3 mps 768 mmHg 56%
    15:00 +18°C° 0 mm 3 mps 767 mmHg 55%
    16:00 +17°C° 0 mm 3 mps 767 mmHg 61%
    17:00 +16°C° 0 mm 3 mps 767 mmHg 67%
    18:00 +14°C° 0 mm 3 mps 767 mmHg 73%
    19:00 +13°C° 0 mm 3 mps 768 mmHg 76%
    20:00 +12°C° 0 mm 3 mps 768 mmHg 79%
    21:00 +11°C° 0 mm 3 mps 768 mmHg 82%
    22:00 +10°C° 0 mm 3 mps 768 mmHg 84%
    23:00 +10°C° 0 mm 3 mps 768 mmHg 86%

    18 September, Wednesday

    Time Temperature Precipitation Wind Pressure Humidity
    00:00 +9°C° 0 mm 3 mps 768 mmHg 88%
    01:00 +9°C° 0 mm 2 mps 769 mmHg 88%
    02:00 +9°C° 0 mm 2 mps 769 mmHg 89%
    03:00 +8°C° 0 mm 2 mps 769 mmHg 90%
    04:00 +8°C° 0 mm 2 mps 769 mmHg 90%
    05:00 +9°C° 0 mm 1 mps 769 mmHg 90%
    06:00 +9°C° 0 mm 1 mps 769 mmHg 90%
    07:00 +11°C° 0 mm 1 mps 769 mmHg 84%
    08:00 +12°C° 0 mm 1 mps 770 mmHg 78%
    09:00 +14°C° 0 mm 1 mps 770 mmHg 71%
    10:00 +16°C° 0 mm 1 mps 770 mmHg 67%
    11:00 +18°C° 0 mm 1 mps 770 mmHg 62%
    12:00 +19°C° 0 mm 1 mps 770 mmHg 57%
    13:00 +20°C° 0 mm 1 mps 770 mmHg 58%
    14:00 +20°C° 0 mm 1 mps 769 mmHg 58%
    15:00 +19°C° 0 mm 2 mps 769 mmHg 59%
    16:00 +18°C° 0 mm 2 mps 769 mmHg 65%
    17:00 +17°C° 0 mm 2 mps 769 mmHg 71%
    18:00 +16°C° 0 mm 2 mps 769 mmHg 77%
    19:00 +15°C° 0 mm 2 mps 770 mmHg 81%
    20:00 +15°C° 0 mm 2 mps 770 mmHg 84%
    21:00 +14°C° 0 mm 2 mps 771 mmHg 87%
    22:00 +13°C° 0 mm 2 mps 771 mmHg 88%
    23:00 +13°C° 0 mm 2 mps 771 mmHg 89%

    19 September, Thursday

    Time Temperature Precipitation Wind Pressure Humidity
    00:00 +12°C° 0 mm 2 mps 771 mmHg 91%
    01:00 +12°C° 0 mm 2 mps 771 mmHg 90%
    02:00 +12°C° 0 mm 2 mps 771 mmHg 90%
    03:00 +12°C° 0 mm 2 mps 771 mmHg 90%
    04:00 +12°C° 0 mm 2 mps 771 mmHg 91%
    05:00 +10°C° 0 mm 2 mps 771 mmHg 91%
    06:00 +10°C° 0 mm 2 mps 771 mmHg 92%
    07:00 +12°C° 0 mm 2 mps 772 mmHg 87%
    08:00 +13°C° 0 mm 3 mps 772 mmHg 81%
    09:00 +14°C° 0 mm 4 mps 772 mmHg 76%
    10:00 +15°C° 0 mm 4 mps 772 mmHg 72%
    11:00 +17°C° 0 mm 4 mps 772 mmHg 69%
    12:00 +18°C° 0 mm 4 mps 773 mmHg 65%
    13:00 +18°C° 0 mm 4 mps 772 mmHg 64%
    14:00 +18°C° 0 mm 4 mps 772 mmHg 63%
    15:00 +18°C° 0 mm 4 mps 772 mmHg 62%
    16:00 +17°C° 0 mm 4 mps 772 mmHg 66%
    17:00 +16°C° 0 mm 3 mps 772 mmHg 70%
    18:00 +14°C° 0 mm 3 mps 772 mmHg 74%
    19:00 +13°C° 0 mm 3 mps 772 mmHg 73%
    20:00 +12°C° 0 mm 3 mps 772 mmHg 73%
    21:00 +11°C° 0 mm 3 mps 773 mmHg 72%
    22:00 +10°C° 0 mm 3 mps 773 mmHg 75%
    23:00 +9°C° 0 mm 3 mps 772 mmHg 78%

    20 September, Friday

    Time Temperature Precipitation Wind Pressure Humidity
    00:00 +9°C° 0 mm 3 mps 772 mmHg 81%
    01:00 +8°C° 0 mm 3 mps 772 mmHg 83%
    02:00 +8°C° 0 mm 2 mps 772 mmHg 84%
    03:00 +8°C° 0 mm 2 mps 772 mmHg 86%
    04:00 +7°C° 0 mm 2 mps 771 mmHg 87%
    05:00 +7°C° 0 mm 3 mps 771 mmHg 88%
    06:00 +7°C° 0 mm 3 mps 771 mmHg 89%
    07:00 +9°C° 0 mm 3 mps 771 mmHg 83%
    08:00 +11°C° 0 mm 4 mps 771 mmHg 77%
    09:00 +13°C° 0 mm 5 mps 771 mmHg 71%
    10:00 +14°C° 0 mm 5 mps 770 mmHg 67%
    11:00 +15°C° 0 mm 5 mps 770 mmHg 63%
    12:00 +16°C° 0 mm 5 mps 770 mmHg 59%
    13:00 +17°C° 0 mm 5 mps 769 mmHg 58%
    14:00 +17°C° 0 mm 5 mps 768 mmHg 57%
    15:00 +19°C° 0 mm 5 mps 768 mmHg 56%
    16:00 +16°C° 0 mm 5 mps 767 mmHg 60%
    17:00 +15°C° 0 mm 4 mps 767 mmHg 64%
    18:00 +14°C° 0 mm 4 mps 766 mmHg 69%
    19:00 +13°C° 0 mm 4 mps 766 mmHg 70%
    20:00 +12°C° 0 mm 4 mps 766 mmHg 72%
    21:00 +10°C° 0 mm 5 mps 766 mmHg 74%
    22:00 +9°C° 0 mm 5 mps 765 mmHg 76%
    23:00 +9°C° 0 mm 5 mps 765 mmHg 78%
    Show more